Hourly Data Report for November 29, 2018

VICTORIA UNIVERSITY CS
BRITISH COLUMBIA
Current Station Operator: ECCC - MSC

48°27'25.200" N
123°18'16.600" W
60.10 m
1018598
71783
WYJ

Download Data

Hourly Data (November 2018)
Hourly Data Report for November 29, 2018
TIME
LST
Temp Definition
°C
Dew Point Definition
°C
Rel Hum Definition
%
Precip. Amount Definition
mm

Wind Dir Definition
10's deg

Wind Spd Definition
km/h
Visibility Definition
km
Stn Press Definition
kPa
Hmdx Definition


Wind Chill Definition


Weather Definition


00:00 8.0 7.4 96 0.0 1 7   99.81     LegendNANA
01:00 8.0 7.2 95 0.0 35 4   99.83     LegendNANA
02:00 7.9 7.0 94 0.0 32 4   99.83     LegendNANA
03:00 7.7 6.7 94 0.0 35 4   99.83     LegendNANA
04:00 7.5 6.9 96 0.0 35 4   99.77     LegendNANA
05:00 7.4 6.8 96 0.0 34 4   99.76     LegendNANA
06:00 7.4 6.8 96 0.0 34 5   99.75     LegendNANA
07:00 7.6 6.9 95 0.0 34 4   99.77     LegendNANA
08:00 7.7 6.8 94 0.0 35 6   99.79     LegendNANA
09:00 7.9 6.9 94 0.0 34 6   99.80     LegendNANA
10:00
11:00
12:00
13:00 8.8 5.3 79 0.0 1 8   99.74     LegendNANA
14:00 8.7 6.1 83 0.0 1 5   99.73     LegendNANA
15:00 8.5 6.6 87 0.0 1 5   99.76     LegendNANA
16:00 8.2 6.5 89 0.0 1 6   99.75     LegendNANA
17:00 7.7 6.1 90 0.0 35 6   99.73     LegendNANA
18:00 7.5 6.4 92 0.0 34 2   99.72     LegendNANA
19:00 7.1 6.1 94 0.0 26 2   99.74     LegendNANA
20:00 6.8 6.2 96 0.0 24 1   99.76     LegendNANA
21:00 6.7 6.2 96 0.0   0   99.76     LegendNANA
22:00 6.5 6.0 97 0.0 0 1   99.78     LegendNANA
23:00 6.9 6.4 97 0.0 26 3   99.80     LegendNANA

Notes on Data Quality.

Legend

  • E = Estimated
  • M = Missing
  • NA = Not Available*
  • [empty] = Indicates an unobserved value
Date modified: